Change the Weather History Date:

Saturday, June 15, 2013

  Actual Average (KNSE) Record (KNSE)
Temperature  
Mean Temperature 81 °F -  
Max Temperature 91 °F 85 °F 100 °F (2011)
Min Temperature 72 °F 69 °F 66 °F (1997)
Cooling Degree Days 16    
Growing Degree Days 31 (Base 50)    
Moisture  
Dew Point 71 °F    
Average Humidity 71    
Maximum Humidity 89    
Minimum Humidity 53    
Precipitation  
Precipitation 0.00 in - - ()
Sea Level Pressure  
Sea Level Pressure 29.96 in    
Wind  
Wind Speed 7 mph (ESE)    
Max Wind Speed 12 mph    
Max Gust Speed 17 mph    
Visibility 10 miles    
Events      
Averages and records for this station are not official NWS values.
T = Trace of Precipitation, MM = Missing Value Source: NWS Daily Summary

Daily Weather History Graph

Daily Weather History Graph

Search for Another Location

Airport or City:

Trip Planner

Search our weather history database for the weather conditions in past years. The results will help you decide how hot, cold, wet, or windy it might be!

Date:

Astronomy

Jun. 15, 2013 Rise Set
Actual Time 5:44 AM CDT 7:52 PM CDT
Civil Twilight 5:17 AM CDT 8:20 PM CDT
Nautical Twilight 4:43 AM CDT 8:53 PM CDT
Astronomical Twilight 4:07 AM CDT 9:30 PM CDT
Moon 11:55 AM CDT (6/15) No Moon Set
Length of Visible Light 15h 03m
Length of Day
14h 07m
Waxing Crescent, 40% of the Moon is Illuminated
Jun 15
Waxing Crescent
Jun 16
First Quarter
Jun 23
Full
Jun 29
Last Quarter
Jul 8
New

Hourly Weather History & Observations

Time (CDT) Temp. Heat Index Dew Point Humidity Pressure Visibility Wind Dir Wind Speed Gust Speed Precip Events Conditions
12:56 AM 77.0 °F - 64.9 °F 66% 29.91 in 10.0 mi North 8.1 mph - N/A   Mostly Cloudy
1:56 AM 75.9 °F - 64.0 °F 67% 29.90 in 10.0 mi North 6.9 mph - N/A   Scattered Clouds
2:56 AM 75.9 °F - 63.0 °F 64% 29.90 in 10.0 mi NNE 8.1 mph - N/A   Scattered Clouds
3:56 AM 73.9 °F - 63.0 °F 68% 29.90 in 10.0 mi North 4.6 mph - N/A   Clear
4:56 AM 73.0 °F - 62.1 °F 68% 29.91 in 10.0 mi NNE 5.8 mph - N/A   Clear
5:56 AM 72.0 °F - 63.0 °F 73% 29.93 in 10.0 mi NNE 6.9 mph - N/A   Clear
6:56 AM 73.9 °F - 64.0 °F 71% 29.94 in 10.0 mi NE 8.1 mph - N/A   Partly Cloudy
7:56 AM 78.1 °F - 66.9 °F 68% 29.96 in 10.0 mi East 9.2 mph - N/A   Clear
8:56 AM 82.0 °F 85.9 °F 70.0 °F 67% 29.97 in 10.0 mi East 8.1 mph - N/A   Clear
9:56 AM 86.0 °F 91.5 °F 71.1 °F 61% 29.98 in 10.0 mi East 4.6 mph - N/A   Clear
10:56 AM 87.1 °F 92.8 °F 71.1 °F 59% 29.98 in 10.0 mi SSE 6.9 mph - N/A   Scattered Clouds
11:56 AM 89.1 °F 94.1 °F 70.0 °F 53% 29.97 in 10.0 mi ESE 3.5 mph - N/A   Mostly Cloudy
12:56 PM 89.1 °F 94.1 °F 70.0 °F 53% 29.96 in 10.0 mi SSE 8.1 mph - N/A   Mostly Cloudy
1:56 PM 90.0 °F 97.9 °F 73.0 °F 57% 29.96 in 10.0 mi SSW 4.6 mph - N/A   Partly Cloudy
2:56 PM 86.0 °F 95.1 °F 75.0 °F 70% 29.96 in 10.0 mi South 9.2 mph - N/A   Overcast
3:56 PM 87.1 °F 95.4 °F 73.9 °F 65% 29.95 in 10.0 mi South 6.9 mph - N/A   Mostly Cloudy
4:56 PM 87.1 °F 97.3 °F 75.9 °F 69% 29.94 in 10.0 mi South 6.9 mph 17.3 mph N/A   Mostly Cloudy
5:56 PM 86.0 °F 93.8 °F 73.9 °F 67% 29.94 in 10.0 mi SSW 8.1 mph - N/A   Mostly Cloudy
6:08 PM 86.0 °F 95.1 °F 75.2 °F 70% 29.98 in 10.0 mi South 11.5 mph - N/A   Mostly Cloudy
6:24 PM 84.2 °F 92.3 °F 75.2 °F 74% 29.99 in 10.0 mi South 6.9 mph - N/A   Scattered Clouds
6:56 PM 84.0 °F 91.2 °F 73.9 °F 72% 29.95 in 10.0 mi South 6.9 mph - N/A   Partly Cloudy
7:56 PM 82.9 °F 90.2 °F 75.0 °F 77% 29.95 in 10.0 mi SSE 6.9 mph - N/A   Overcast
8:56 PM 81.0 °F 86.7 °F 75.0 °F 82% 29.96 in 10.0 mi SE 4.6 mph - N/A   Scattered Clouds
9:56 PM 80.1 °F 85.1 °F 75.0 °F 85% 29.99 in 10.0 mi SSE 6.9 mph - N/A   Partly Cloudy
10:56 PM 79.0 °F - 75.0 °F 88% 30.00 in 10.0 mi East 4.6 mph - N/A   Partly Cloudy
11:21 PM 80.6 °F 86.2 °F 75.2 °F 84% 30.04 in 10.0 mi East 4.6 mph - N/A   Mostly Cloudy
11:28 PM 80.6 °F 86.2 °F 75.2 °F 84% 30.05 in 10.0 mi East 4.6 mph - N/A   Mostly Cloudy
11:35 PM 78.8 °F - 75.2 °F 89% 30.04 in 10.0 mi East 3.5 mph - N/A   Mostly Cloudy
11:56 PM 79.0 °F - 75.0 °F 88% 30.00 in 10.0 mi ESE 4.6 mph - N/A   Partly Cloudy